This demonstration page uses our WeatherBlox Daily Observations layout. Learn more.

Left ArrowRight Arrow

30.21309, -93.2044

Hourly Observations for June 20, 2019

Temp ( °F °C ) Dew Point ( °F °C ) Humidity (%) Winds ( mph kmh ) Pressure ( in mb ) Visibility ( mi km ) Precip ( " mm )
12:15 am 00:15 Partly Cloudy 82 27.7 77 25.2 86 86 S 9 15 29.81 1009 10 16 0.00 0.00
12:35 am 00:35 Partly Cloudy 82 27.7 77 25.2 86 86 S 9 15 29.82 1010 10 16 0.00 0.00
12:55 am 00:55 Partly Cloudy 82 27.7 77 25.2 86 86 SSW 9 15 29.83 1010 10 16 0.00 0.00
1:15 am 01:15 Partly Cloudy 82 28 77 25.2 85 85 SSW 10 17 29.84 1010 10 16 0.00 0.00
1:35 am 01:35 Mostly Cloudy 83 28.1 78 25.3 85 85 SSW 9 15 29.85 1011 10 16 0.00 0.00
1:55 am 01:55 Mostly Cloudy 83 28.2 78 25.5 85 85 SW 9 15 29.86 1011 10 16 0.00 0.00
2:15 am 02:15 Partly Cloudy 83 28.1 78 25.4 85 85 SW 7 11 29.87 1011 10 16 0.00 0.00
2:35 am 02:35 Partly Cloudy 83 28.1 78 25.5 86 86 WSW 9 15 29.89 1012 10 16 0.00 0.00
2:55 am 02:55 Mostly Cloudy 83 28.5 78 25.5 84 84 WSW 9 15 29.90 1013 10 16 0.00 0.00
3:15 am 03:15 Partly Cloudy 83 28.5 78 25.5 84 84 W 7 11 29.91 1013 10 16 0.00 0.00
3:35 am 03:35 Mostly Cloudy 83 28.4 78 25.5 84 84 SW 8 13 29.89 1012 10 16 0.00 0.00
3:55 am 03:55 Partly Cloudy 82 28 77 25.2 85 85 SSW 9 15 29.88 1012 10 16 0.00 0.00
4:15 am 04:15 Clear 82 27.6 78 25.3 87 87 SE 7 11 29.87 1011 10 16 0.00 0.00
4:35 am 04:35 Clear 81 27.2 78 25.5 90 90 ESE 7 11 29.87 1011 10 16 0.00 0.00
4:55 am 04:55 Clear 79 26 77 25 94 94 ESE 6 9 29.87 1011 10 16 0.00 0.00
5:15 am 05:15 Clear 80 26.5 78 25.4 94 94 ESE 8 13 29.87 1011 10 16 0.00 0.00
5:35 am 05:35 Clear 80 26.5 77 25.2 93 93 SE 8 13 29.86 1011 10 16 0.00 0.00
6:00 am 06:00 Mostly Clear 79 26 77 25 94 94 SE 8 13 29.85 1011 10 16 0.00 0.00
6:50 am 06:50 Mostly Sunny 81 27 77 25 89 89 SSE 8 13 29.85 1011 10 16 0.00 0.00
7:55 am 07:55 Partly Cloudy 84 29 79 26 84 84 SSW 12 19 29.89 1012 10 16 0.00 0.00
8:50 am 08:50 Mostly Cloudy 86 30 77 25 75 75 SW 15 24 29.90 1013 10 16 0.00 0.00
9:55 am 09:55 Mostly Cloudy 88 31 77 25 70 70 SW 13 20 29.90 1013 10 16 0.00 0.00
11:47 am 11:47 Mostly Cloudy 90 32 77 25 67 67 SSW 21 33 29.88 1012 10 16 0.00 0.00
12:55 pm 12:55 Mostly Cloudy 90 32 77 25 67 67 SSW 17 28 29.88 1012 10 16 0.00 0.00
1:45 pm 13:45 Mostly Cloudy 91 33 79 26 67 67 S 16 26 29.88 1012 10 16 0.00 0.00
2:50 pm 14:50 Mostly Cloudy 91 33 79 26 67 67 S 18 30 29.88 1012 10 16 0.00 0.00
3:50 pm 15:50 Mostly Cloudy 90 32 77 25 67 67 SSW 15 24 29.88 1012 10 16 0.00 0.00
4:50 pm 16:50 Mostly Cloudy 90 32 77 25 67 67 SSW 13 20 29.88 1012 10 16 0.00 0.00
5:50 pm 17:50 Mostly Cloudy 90 32 79 26 71 71 SSW 15 24 29.87 1011 10 16 0.00 0.00
6:50 pm 18:50 Partly Cloudy 88 31 79 26 75 75 SSW 12 19 29.87 1011 10 16 0.00 0.00
7:50 pm 19:50 Partly Cloudy 86 30 79 26 79 79 SSW 9 15 29.88 1012 10 16 0.00 0.00
8:50 pm 20:50 Mostly Clear 84 29 79 26 84 84 S 6 9 29.89 1012 10 16 0.00 0.00
9:50 pm 21:50 Mostly Clear 82 28 79 26 89 89 S 6 9 29.90 1013 10 16 0.00 0.00
10:15 pm 22:15 Clear 82 27.7 79 26 90 90 ESE 8 13 29.91 1013 10 16 0.00 0.00
10:35 pm 22:35 Clear 82 27.5 78 25.8 90 90 SE 7 11 29.92 1013 10 16 0.00 0.00
10:55 pm 22:55 Clear 82 27.5 78 25.7 90 90 ESE 7 11 29.92 1013 10 16 0.00 0.00
11:15 pm 23:15 Clear 81 27.3 78 25.8 92 92 ESE 7 11 29.92 1013 10 16 0.00 0.00
11:35 pm 23:35 Clear 81 27.3 78 25.8 92 92 ESE 8 13 29.92 1013 10 16 0.00 0.00
11:55 pm 23:55 Partly Cloudy 81 27.1 78 25.7 92 92 ESE 8 13 29.93 1014 10 16 0.00 0.00

Powered by AerisWeather